Tracking 31027 objects as of 19-Jul-2025
HD Live streaming from Space Station
objects crossing your sky now

ATLAS 41E DEB

Track ATLAS 41E DEB now!
10-day predictions


NORAD ID: 15615
Int'l Code: 1985-021E
Perigee: 697.3 km
Apogee: 757.9 km
Inclination: 107.8 °
Period: 99.2 minutes
Semi major axis: 7098 km
RCS: 0.0182 m2 (small)
Launch date: March 13, 1985
Source: United States (US)
Launch site: AIR FORCE WESTERN TEST RANGE (AFWTR)

Note: This is SATELLITE DEBRIS
Your satellite tracking list
Your tracking list is empty




NASA's NSSDC Master Catalog

Two Line Element Set (TLE):
1 15615U 85021E   25199.12764617  .00000715  00000-0  21210-3 0  9996
2 15615 107.8161 293.5587 0042682 204.9435 274.6706 14.51598991119669
Source of the keplerian elements: AFSPC